Location: Bratsk-Energetik
(56.3300°N, 101.7600°E)
Time: 21:52:10
(UTC+08:00)

ISS - Visible Passes

Search period start: 06 May 2021 00:00
Search period end: 16 May 2021 00:00
Orbit: 418 x 421 km, 51.6° (Epoch: 05 May)

Date Brightness Start Highest point End Pass type
(mag) Time Alt. Az. Time Alt. Az. Time Alt. Az.
06 May -1.7 02:36:34 16° SE 02:36:34 16° SE 02:38:23 10° ESE visible
06 May -2.8 04:09:30 11° SW 04:12:27 33° S 04:15:32 10° ESE visible
07 May -2.7 03:23:35 20° SSW 03:25:08 29° SSE 03:28:07 10° ESE visible
08 May -2.5 02:37:39 24° SSE 02:37:51 24° SSE 02:40:40 10° ESE visible
08 May -3.1 04:11:01 10° WSW 04:14:10 37° S 04:17:20 10° ESE visible
09 May -1.8 01:51:41 17° SE 01:51:41 17° SE 01:53:08 10° ESE visible
09 May -3.1 03:24:37 16° SW 03:26:51 36° S 03:29:59 10° ESE visible
10 May -3.0 02:38:37 28° SSW 02:39:31 33° S 02:42:36 10° ESE visible
10 May -3.0 04:12:48 10° WSW 04:15:54 34° S 04:19:00 10° ESE visible
11 May -2.7 01:52:35 28° SSE 01:52:35 28° SSE 01:55:10 10° ESE visible
11 May -3.1 03:25:31 11° WSW 03:28:34 36° S 03:31:43 10° ESE visible
12 May -1.8 01:06:31 17° ESE 01:06:31 17° ESE 01:07:42 10° ESE visible
12 May -3.2 02:39:27 21° SW 02:41:13 37° S 02:44:23 10° ESE visible
12 May -2.6 04:14:42 10° WSW 04:17:34 26° SSW 04:20:27 10° SE visible
13 May -3.2 01:53:18 33° SSW 01:53:53 36° S 01:57:01 10° ESE visible
13 May -2.9 03:27:14 10° WSW 03:30:15 30° SSW 03:33:17 10° SE visible
14 May -3.0 01:06:59 31° SSE 01:06:59 31° SSE 01:09:37 10° ESE visible
14 May -3.1 02:39:53 10° WSW 02:42:55 34° S 02:46:01 10° ESE visible
14 May-1.222:47:07E22:47:07E22:40:55Svisible
15 May -2.7 00:19:53 27° SE 00:19:53 27° SE 00:22:11 10° ESE visible
15 May -3.2 01:52:36 11° WSW 01:55:35 36° S 01:58:43 10° ESE visible
15 May -2.5 03:29:13 10° WSW 03:31:51 21° SSW 03:34:30 10° SSE visible
15 May -2.7 23:29:05 10° SW 23:31:53 24° SSE 23:34:42 10° ESE visible
